Temp
61 61 60 60 60 60 60 60 60 61 60 60 60 60 60 60 60 68 71 80 82 73 71 89 89 89 90 85 89 88 75 73 75 80 84 90 87 93 96 89 92 96 95 98 101
60 60 60 60 60 60 60 60 60 60 60 60 60 60 59 60 66 73 81 72 72 71 82 86 84 87 84 85 83 78 72 75 84 87 84 87 90 90 88 88 89 92 97 100 100
60 60 60 60 60 60 59 60 60 60 60 60 60 59 59 63 68 82 74 71 71 73 86 92 91 87 82 86 84 81 72 82 85 88 87 85 87 91 86 82 88 89 93 96 97
60 60 60 59 59 59 59 59 59 60 60 59 59 59 58 67 67 84 73 71 71 83 87 87 87 82 80 78 85 77 84 84 85 86 84 82 87 85 87 87 94 94 94 95 94
59 59 59 59 59 59 59 59 59 59 59 59 59 59 62 69 78 80 72 73 81 83 85 85 82 83 78 82 83 79 82 85 86 84 83 85 82 83 85 91 93 93 93 92 92
58 59 59 59 59 59 59 58 58 58 58 58 60 58 66 68 90 87 87 84 85 87 86 87 84 87 83 83 81 83 81 83 84 84 84 80 81 83 86 90 89 90 90 93 93
58 58 58 58 58 58 58 58 57 58 58 59 60 66 70 76 90 91 89 88 91 89 84 89 90 84 85 79 85 83 75 79 81 82 81 84 76 78 87 90 86 87 89 91 92
58 58 58 58 58 58 58 58 57 58 59 60 60 71 71 89 93 89 90 87 91 92 90 90 90 86 83 86 79 75 77 70 81 82 82 79 69 84 87 83 82 85 86 88 90
58 57 57 58 58 58 58 57 58 59 59 61 65 71 73 76 81 89 91 85 86 87 87 87 87 82 81 74 72 74 67 71 76 83 80 76 72 84 85 83 82 83 85 87 89
58 57 57 57 57 57 56 56 58 58 63 71 75 67 76 77 85 87 90 89 83 82 80 79 79 74 76 73 63 68 69 72 72 80 78 75 75 82 85 84 82 83 85 86 87
58 57 56 57 57 56 58 68 61 60 68 72 74 76 78 84 89 84 87 83 83 78 70 76 71 67 72 76 76 75 71 70 75 80 75 73 74 78 83 83 83 84 85 86 87
57 57 57 56 56 56 65 73 77 74 63 74 75 79 82 84 75 81 87 76 74 68 74 72 65 75 78 77 73 71 67 68 74 78 74 72 72 77 80 81 83 83 84 85 87
56 56 56 56 56 59 73 77 87 84 69 71 75 75 78 81 75 77 82 78 73 69 71 67 73 76 74 72 68 69 66 67 68 74 75 71 68 72 79 82 83 84 85 85 85
56 56 56 56 56 79 75 83 87 84 63 65 69 72 76 79 71 85 85 79 74 69 72 72 77 73 70 69 71 63 74 71 68 65 60 74 58 70 76 77 80 81 82 83 84
56 55 55 55 64 74 80 85 86 79 45 72 71 83 77 71 74 74 86 80 70 72 72 69 71 70 68 70 74 67 75 71 69 65 64 65 62 68 76 73 77 79 82 82 83
55 55 54 62 64 77 83 83 79 58 47 66 73 71 69 71 72 75 75 79 78 71 73 71 79 74 73 76 75 75 71 69 68 66 55 63 63 64 70 73 76 81 80 81 82
55 55 58 74 74 84 84 76 58 52 70 64 67 71 71 67 69 69 66 64 61 55 55 65 68 75 76 69 74 71 63 53 52 54 53 68 64 66 74 77 76 76 78 79 80
54 53 62 77 82 80 77 67 50 62 63 69 69 69 64 68 68 68 65 61 66 65 60 56 53 68 74 70 66 67 64 52 41 46 54 65 56 65 76 77 78 79 77 77 77
52 79 80 80 82 80 71 58 60 63 66 64 67 63 61 65 65 64 63 63 65 66 55 53 54 70 72 73 71 64 59 67 56 57 51 57 64 72 77 75 74 74 75 74 76
65 75 78 81 81 75 67 56 63 67 67 67 57 62 55 60 58 59 58 64 62 65 67 58 48 64 68 69 70 64 68 53 55 39 40 52 56 58 65 68 72 71 73 74 76
65 71 78 83 80 71 62 65 65 69 68 62 61 58 57 55 60 57 56 63 65 63 65 59 49 53 62 59 59 61 58 59 57 52 40 40 50 68 65 68 68 71 74 74 75
71 67 80 83 66 72 66 65 53 66 68 65 64 61 56 56 53 53 55 59 66 65 56 61 53 47 53 64 68 65 61 58 44 44 50 46 47 69 70 71 70 71 73 76 77
66 71 81 77 62 67 66 64 64 63 63 61 57 60 61 54 48 56 57 65 67 63 54 59 47 44 50 58 62 58 60 59 57 55 48 44 50 69 68 68 71 72 74 75 76
67 63 72 76 71 61 60 60 59 63 61 62 59 59 56 53 56 52 53 57 62 63 57 58 53 46 44 48 49 47 53 58 55 46 47 49 53 62 66 68 72 72 74 74 73
69 62 61 62 63 59 59 59 56 55 60 60 57 54 51 44 47 49 53 55 59 59 58 52 44 51 53 55 55 55 54 56 53 54 47 53 54 60 67 68 71 73 73 71 72
58 60 68 63 56 57 51 56 54 51 53 52 52 52 51 46 47 42 51 49 49 55 51 50 39 49 46 52 54 52 56 58 58 58 58 58 57 68 71 73 71 67 68 68 69
66 65 61 53 56 55 58 52 50 52 56 55 51 51 49 51 55 56 53 56 51 48 49 42 43 40 40 52 52 46 55 57 59 62 60 54 61 67 66 65 64 65 66 66 67
MSLP
1018.03 1017.49 1017.09 1016.79 1016.46 1016.13 1015.89 1015.65 1015.35 1015.08 1014.94 1014.76 1014.54 1014.39 1014.17 1013.93 1013.67 1012.76 1010.34 1008.29 1008.24 1009.16 1009.28 1007.63 1007.39 1007.08 1006.90 1006.13 1005.84 1005.45 1004.05 1002.00 1001.46 1000.56 999.86 1000.49 1000.91 1001.33 1001.26 1001.98 1001.92 1001.69 1001.64 1001.74 1002.25
1018.07 1017.51 1017.01 1016.68 1016.34 1015.99 1015.72 1015.49 1015.24 1015.00 1014.81 1014.59 1014.38 1014.28 1014.09 1013.93 1012.67 1009.77 1007.96 1008.30 1008.71 1009.24 1008.54 1006.85 1006.20 1006.17 1005.68 1005.20 1005.44 1004.94 1003.74 1002.30 1001.86 1001.00 1000.98 1001.68 1001.08 1001.40 1001.48 1001.81 1001.93 1001.81 1002.02 1002.18 1002.39
1018.07 1017.51 1016.99 1016.55 1016.21 1015.88 1015.60 1015.31 1015.10 1014.81 1014.67 1014.49 1014.27 1014.13 1014.05 1013.78 1010.85 1005.96 1006.65 1007.90 1008.69 1008.99 1007.72 1006.04 1005.38 1005.47 1004.78 1004.37 1004.20 1004.15 1003.33 1002.29 1001.83 1001.72 1002.17 1002.17 1001.77 1001.80 1002.08 1002.01 1001.93 1001.75 1001.79 1001.98 1002.36
1018.12 1017.50 1016.93 1016.40 1016.01 1015.74 1015.50 1015.19 1014.83 1014.64 1014.50 1014.38 1014.20 1014.00 1013.98 1012.98 1007.74 1006.23 1007.49 1008.01 1008.59 1008.23 1006.98 1005.87 1005.11 1004.62 1003.91 1003.52 1003.42 1003.19 1002.63 1002.70 1002.42 1002.23 1002.83 1002.79 1002.62 1002.22 1002.15 1002.19 1001.99 1002.13 1002.48 1002.45 1002.41
1018.09 1017.62 1017.02 1016.44 1015.90 1015.49 1015.23 1015.05 1014.80 1014.49 1014.35 1014.26 1014.11 1013.99 1013.61 1010.47 1006.60 1007.21 1007.81 1008.19 1008.19 1007.74 1006.23 1005.38 1004.65 1004.05 1003.26 1002.94 1003.14 1003.03 1002.76 1002.63 1002.62 1003.13 1003.19 1003.04 1002.69 1002.42 1002.13 1002.21 1002.42 1002.56 1002.45 1002.56 1002.50
1017.99 1017.45 1017.02 1016.47 1015.90 1015.39 1014.95 1014.66 1014.57 1014.47 1014.36 1014.23 1014.08 1014.08 1012.34 1008.20 1005.95 1006.95 1006.95 1007.52 1007.08 1006.50 1005.76 1005.12 1004.41 1003.94 1003.13 1002.68 1002.65 1002.84 1003.16 1002.48 1002.66 1002.71 1002.76 1002.90 1002.73 1002.64 1002.09 1002.31 1002.43 1002.61 1002.39 1002.14 1002.06
1017.82 1017.28 1016.76 1016.36 1015.81 1015.23 1014.75 1014.38 1014.12 1014.06 1014.02 1013.94 1013.73 1013.16 1010.08 1006.69 1006.13 1006.35 1006.60 1006.38 1006.08 1005.94 1005.37 1005.09 1004.45 1004.23 1003.46 1003.03 1002.90 1002.86 1002.97 1002.60 1002.46 1002.33 1002.34 1002.50 1001.98 1001.56 1001.74 1001.76 1002.18 1002.31 1002.37 1002.27 1002.19
1017.66 1017.12 1016.49 1015.98 1015.54 1015.04 1014.46 1014.04 1013.79 1013.65 1013.66 1013.61 1013.52 1011.97 1007.83 1005.81 1006.13 1006.05 1006.09 1005.93 1006.01 1005.52 1005.04 1005.07 1004.94 1004.25 1003.53 1002.97 1003.36 1003.10 1002.65 1001.58 1000.82 1001.36 1001.97 1002.69 1001.32 1000.51 1001.18 1002.03 1002.42 1002.33 1002.37 1002.19 1002.24
1017.39 1016.95 1016.39 1015.69 1015.12 1014.57 1014.09 1013.64 1013.31 1013.08 1013.33 1013.32 1012.77 1010.65 1006.53 1007.10 1006.39 1005.80 1005.77 1005.58 1005.93 1005.82 1005.70 1005.66 1005.08 1004.06 1003.77 1003.24 1002.62 1002.12 1001.07 1000.37 1000.02 1000.71 1001.55 1002.14 1000.93 1000.39 1001.60 1001.90 1002.01 1001.97 1001.93 1001.81 1001.88
1017.17 1016.57 1016.07 1015.46 1014.72 1014.09 1013.47 1013.25 1013.11 1013.13 1012.99 1012.13 1010.69 1009.25 1006.33 1004.93 1005.16 1005.37 1005.61 1005.36 1005.63 1005.67 1005.60 1005.56 1004.68 1003.77 1003.15 1002.42 1000.92 1000.31 1000.27 1000.11 999.59 1000.06 1001.28 1001.15 1000.85 1000.67 1000.66 1000.96 1001.30 1001.35 1001.36 1001.37 1001.39
1016.70 1016.26 1015.71 1015.07 1014.42 1013.75 1013.34 1012.53 1012.65 1011.59 1010.55 1007.96 1006.82 1005.57 1004.88 1004.67 1004.91 1005.02 1005.40 1005.56 1005.44 1005.24 1004.67 1004.46 1003.66 1002.38 1001.90 1001.56 1001.13 1000.57 1000.58 999.97 999.86 1000.38 1000.88 1000.91 1000.71 1000.45 1000.25 1000.37 1000.42 1000.47 1000.50 1000.59 1000.81
1016.33 1015.77 1015.22 1014.62 1014.02 1013.47 1012.68 1009.83 1008.02 1008.53 1007.69 1006.73 1006.27 1005.12 1004.83 1004.68 1004.65 1004.66 1005.27 1005.17 1004.97 1004.31 1004.17 1003.47 1002.78 1002.17 1001.76 1001.49 1001.59 1001.68 1001.52 1001.09 1000.93 1000.90 1001.29 1001.16 1000.59 1000.34 1000.22 1000.00 1000.07 1000.12 1000.19 1000.27 1000.54
1015.98 1015.38 1014.74 1014.08 1013.31 1012.73 1010.38 1008.60 1007.64 1007.43 1006.35 1005.25 1005.13 1004.77 1004.58 1005.00 1003.97 1003.85 1004.81 1004.60 1004.19 1003.86 1003.11 1002.59 1001.64 1002.03 1002.12 1001.79 1002.15 1001.93 1001.73 1001.34 1001.08 1000.91 1001.03 1001.14 1000.35 999.92 999.46 999.33 999.59 1000.01 1000.20 1000.35 1000.56
1015.60 1014.96 1014.35 1013.41 1012.98 1009.42 1008.28 1007.50 1007.23 1007.33 1005.44 1004.24 1004.55 1004.66 1004.51 1004.47 1003.95 1003.17 1004.26 1004.16 1003.61 1003.18 1002.73 1002.07 1001.91 1001.83 1002.23 1001.63 1001.89 1001.52 1001.53 1001.68 1001.67 1001.65 1000.62 1000.01 998.75 998.38 998.31 998.38 998.68 999.35 999.86 1000.18 1000.52
1015.15 1014.40 1013.73 1013.49 1011.64 1008.60 1007.72 1007.48 1007.25 1007.22 1004.34 1002.81 1003.61 1004.32 1004.34 1004.25 1003.36 1003.65 1003.81 1003.83 1003.37 1002.88 1002.92 1001.70 1001.63 1001.65 1001.44 1001.52 1001.62 1001.49 1001.43 1001.55 1001.71 1001.48 1000.92 1000.16 998.97 997.73 997.51 997.38 997.38 998.60 999.26 999.96 1000.93
1014.59 1013.80 1012.97 1011.89 1011.76 1009.08 1008.16 1007.78 1007.40 1005.88 1002.72 1002.11 1003.06 1003.28 1003.90 1004.09 1003.58 1003.59 1003.94 1004.13 1003.74 1003.57 1002.73 1002.30 1001.74 1001.93 1001.29 1001.33 1001.61 1001.82 1001.85 1002.00 1001.82 1001.18 999.83 999.26 998.46 997.12 996.64 996.66 996.91 997.91 999.18 1000.21 1001.16
1014.02 1013.15 1012.64 1010.57 1008.61 1008.31 1007.97 1007.36 1005.83 1003.49 1002.53 1002.20 1002.18 1002.51 1002.39 1003.38 1003.36 1003.84 1004.05 1004.34 1004.29 1004.07 1003.48 1002.89 1002.18 1001.85 1002.02 1001.72 1001.69 1002.15 1002.24 1001.42 1000.74 999.81 998.35 997.99 997.05 996.36 996.53 997.06 998.10 998.79 999.61 1000.81 1001.60
1013.52 1012.48 1010.96 1009.71 1008.95 1008.70 1007.89 1006.35 1004.31 1002.98 1002.60 1003.16 1002.96 1002.60 1002.57 1002.90 1003.11 1003.33 1003.74 1004.01 1004.44 1003.94 1003.29 1002.79 1002.05 1001.55 1001.32 1001.33 1001.52 1001.29 1001.58 1001.66 1001.01 1000.31 999.18 998.45 997.12 996.49 997.11 998.07 998.72 999.38 1000.31 1001.35 1002.04
1012.79 1010.09 1008.95 1008.79 1008.85 1008.57 1007.11 1004.80 1003.31 1003.63 1003.87 1003.64 1003.20 1002.81 1003.10 1003.37 1003.92 1003.98 1004.14 1004.10 1004.44 1004.65 1004.63 1004.07 1003.20 1002.48 1002.52 1002.22 1002.20 1002.08 1001.90 1002.21 1001.99 1001.98 1000.70 999.70 998.23 997.25 996.85 997.45 998.95 999.91 1000.53 1001.28 1001.78
1012.91 1009.75 1008.50 1008.62 1008.67 1008.09 1006.29 1004.57 1004.29 1004.98 1004.92 1004.47 1004.00 1004.04 1003.92 1004.10 1004.57 1004.70 1004.92 1005.08 1005.18 1005.70 1006.00 1005.97 1005.36 1003.99 1003.06 1003.42 1003.12 1003.10 1003.24 1003.39 1003.24 1002.72 1001.12 999.82 998.47 997.65 997.95 998.30 998.83 999.73 1000.35 1000.85 1001.47
1012.34 1008.70 1008.28 1008.33 1008.39 1006.97 1005.12 1004.29 1004.96 1005.60 1005.99 1005.48 1004.89 1005.14 1005.49 1005.81 1005.44 1005.50 1005.62 1005.44 1005.84 1006.17 1006.84 1007.29 1007.62 1005.45 1004.43 1003.59 1003.04 1002.88 1003.46 1003.49 1003.72 1003.54 1002.62 1001.22 999.74 998.71 999.35 999.59 999.84 1000.04 1000.16 1000.76 1001.15
1010.78 1007.64 1008.02 1008.08 1007.18 1005.36 1004.71 1005.49 1006.74 1005.98 1006.34 1006.23 1006.42 1006.46 1006.74 1007.13 1007.11 1006.77 1006.17 1006.17 1006.62 1006.96 1007.17 1007.33 1007.26 1005.97 1004.57 1003.77 1003.54 1003.18 1003.04 1003.73 1004.37 1003.94 1003.00 1002.35 1000.60 1000.20 999.74 999.69 1000.14 1000.45 1000.53 1000.33 1000.13
1010.88 1008.20 1007.72 1007.86 1006.07 1004.72 1005.65 1006.36 1006.94 1006.99 1006.90 1007.11 1007.41 1007.72 1007.81 1008.16 1008.19 1007.40 1007.12 1006.99 1007.16 1007.43 1008.23 1008.14 1008.04 1006.38 1004.39 1003.63 1003.54 1003.56 1003.70 1003.87 1004.19 1004.04 1002.75 1002.03 1000.04 1000.05 1000.39 1000.04 999.81 999.25 999.45 999.60 999.68
1011.07 1008.14 1007.36 1007.53 1007.79 1007.53 1006.72 1006.63 1007.06 1008.04 1008.27 1008.27 1008.45 1008.78 1008.98 1008.92 1008.93 1008.76 1008.39 1008.67 1008.66 1008.48 1009.37 1009.52 1008.37 1007.55 1005.58 1004.65 1005.49 1004.93 1004.57 1004.25 1004.00 1003.30 1002.50 1001.41 1000.38 1000.08 999.40 998.80 998.38 998.75 998.91 999.35 999.62
1011.12 1009.86 1010.26 1007.58 1007.96 1008.86 1008.64 1008.02 1007.93 1008.23 1009.13 1009.52 1008.97 1009.60 1010.06 1010.53 1010.27 1009.77 1009.55 1009.30 1009.31 1009.38 1009.71 1010.41 1009.62 1008.35 1007.02 1005.93 1005.21 1004.40 1003.91 1003.60 1003.05 1002.66 1002.05 1001.06 1000.11 999.54 998.99 998.67 998.63 998.64 998.72 999.14 999.24
1012.22 1011.15 1010.50 1009.78 1010.28 1009.67 1009.33 1009.02 1009.17 1010.01 1010.43 1010.07 1010.48 1010.70 1011.09 1011.22 1011.03 1010.88 1010.56 1010.64 1010.44 1010.24 1010.82 1011.40 1010.84 1009.38 1007.53 1006.49 1005.37 1004.01 1003.33 1002.70 1002.18 1001.76 1000.95 1000.39 999.70 999.70 999.11 998.80 998.69 999.27 999.95 999.91 999.78
1013.21 1012.83 1012.13 1011.17 1010.42 1010.25 1009.79 1010.62 1011.09 1011.45 1010.91 1011.29 1011.68 1011.73 1011.45 1011.29 1011.36 1011.28 1011.38 1010.92 1011.17 1011.43 1011.43 1011.94 1011.28 1010.09 1007.70 1006.12 1004.98 1003.52 1002.42 1001.88 1001.34 1000.99 1000.71 1000.10 999.68 999.77 999.53 999.58 1000.21 1000.63 1000.57 1000.49 1000.63
Wind_Speed
18 17 15 15 14 12 12 12 12 11 11 11 11 12 12 13 16 15 14 2 13 6 6 9 13 15 16 14 13 9 14 17 22 24 15 6 9 15 3 7 9 10 8 9 7
19 18 17 15 15 13 12 12 11 11 10 10 10 10 11 12 17 20 10 9 6 3 12 14 16 16 15 17 10 12 12 20 19 15 12 14 17 17 8 13 14 14 12 11 10
19 19 18 16 15 14 13 11 11 10 10 9 9 9 10 13 15 6 17 14 9 11 20 13 12 16 19 13 19 18 17 16 16 9 9 14 16 10 12 17 16 14 13 9 11
20 19 18 17 16 14 13 13 11 10 8 8 8 8 10 15 3 11 11 12 11 16 18 12 14 18 17 18 15 18 17 19 15 7 10 15 15 16 14 16 14 11 10 13 12
19 19 20 18 17 16 14 12 12 10 9 8 8 8 10 10 6 11 14 11 14 14 15 14 15 16 16 15 15 17 17 14 15 12 14 15 15 15 16 11 8 12 11 11 13
17 18 18 18 17 16 15 13 11 11 9 9 8 7 12 14 7 13 12 14 15 14 13 14 10 15 10 13 16 12 18 16 12 15 15 16 15 16 15 7 12 12 12 13 13
16 16 17 17 17 17 14 13 10 11 10 10 8 10 12 7 1 12 12 13 12 13 10 13 10 9 10 11 10 15 13 14 16 15 15 11 17 19 18 13 12 11 11 10 11
17 16 16 17 17 16 15 14 13 11 10 10 8 12 9 4 6 10 11 7 10 11 9 5 9 14 10 4 5 15 15 16 18 20 15 8 16 10 6 4 11 12 10 9 11
19 17 17 18 19 17 17 13 13 10 9 8 10 12 11 6 11 13 12 11 10 7 2 3 10 12 10 11 14 14 14 19 16 10 11 13 13 12 5 9 12 11 12 13 13
20 20 18 18 19 20 16 10 5 10 8 9 11 8 8 11 12 15 12 11 12 10 10 12 9 12 13 14 14 13 17 15 13 11 11 15 17 15 11 12 13 13 12 12 12
20 21 20 20 18 19 6 6 7 5 9 12 2 10 4 4 11 13 13 12 14 13 14 14 13 16 17 17 18 16 13 14 8 9 9 13 16 16 14 12 16 15 15 13 12
22 20 21 20 19 17 10 9 7 3 8 16 16 14 4 3 11 15 15 14 15 16 17 13 16 16 14 11 10 13 15 16 14 12 12 16 19 16 17 16 18 16 16 14 12
23 22 21 23 22 8 13 13 9 5 9 8 2 8 11 11 11 17 19 18 16 17 18 18 12 7 12 13 14 15 16 15 15 12 11 16 20 21 21 24 18 13 12 13 9
23 24 22 21 12 2 8 3 8 3 9 12 9 5 6 12 11 11 18 18 13 15 17 16 16 13 11 16 14 16 15 15 15 14 14 14 13 15 12 12 16 15 11 13 6
24 24 22 7 12 7 7 5 7 5 5 11 9 8 7 12 4 15 14 20 17 14 11 14 15 15 19 17 14 15 12 11 12 16 18 18 15 14 14 17 14 9 16 2 9
24 25 20 7 8 12 9 5 6 8 2 8 7 10 12 15 4 7 12 13 9 16 15 18 7 7 12 12 13 10 11 14 17 16 18 19 19 16 17 10 5 11 2 7 10
27 24 15 9 5 6 4 6 8 7 3 4 5 8 11 12 9 10 12 15 13 10 13 16 19 16 13 14 13 13 12 12 15 15 17 18 18 13 6 6 7 9 9 9 10
30 26 8 6 6 5 6 9 7 6 4 5 4 6 8 4 8 8 7 13 17 17 15 13 14 18 15 22 17 17 16 12 15 16 18 21 17 9 4 4 8 9 6 7 9
32 4 4 4 1 5 8 9 7 11 7 7 9 9 6 5 7 6 11 11 9 9 11 10 18 16 9 11 10 13 17 14 18 18 18 18 25 22 21 13 4 6 9 9 12
10 6 5 4 2 6 8 5 2 4 6 7 10 6 6 5 8 5 6 6 14 13 9 9 17 20 16 5 13 13 13 13 8 9 19 14 15 8 8 4 5 3 9 10 12
6 6 7 4 4 8 9 6 1 6 8 6 9 8 7 11 12 9 7 5 9 6 8 9 6 9 17 13 15 11 13 13 15 13 12 16 11 6 2 8 13 16 11 11 14
6 5 5 4 9 3 6 5 3 6 3 5 6 10 7 8 11 13 13 12 2 2 6 7 7 14 19 17 16 17 16 13 9 13 13 13 14 18 18 6 7 9 13 19 15
6 5 4 6 8 5 7 5 3 7 6 3 4 4 5 7 5 8 9 8 8 9 5 5 7 10 12 19 20 15 14 15 16 18 22 20 14 7 10 11 17 17 14 16 15
6 4 5 2 2 8 3 6 5 3 8 6 6 5 8 9 5 8 8 6 10 9 8 7 13 14 13 5 3 7 13 15 15 14 17 19 24 21 21 23 17 17 16 14 15
1 4 5 2 4 8 5 2 6 3 1 4 4 4 2 4 7 13 12 10 12 13 12 5 13 19 20 21 21 22 22 21 22 23 24 23 27 23 22 22 21 20 13 16 16
6 5 0 6 5 7 3 2 4 3 4 2 8 6 4 7 9 16 13 11 12 3 5 5 5 17 19 20 22 23 21 22 23 24 24 25 24 22 22 19 16 18 17 19 19
1 1 5 2 2 6 3 3 2 3 7 3 6 8 11 11 9 11 13 16 12 10 9 4 6 6 15 18 16 17 18 18 15 17 18 18 17 17 19 18 18 16 17 20 23
Wind_Direction
345 342 337 333 327 321 312 304 296 296 295 295 296 297 305 303 295 250 243 248 199 107 230 224 204 208 217 222 236 241 256 243 243 254 254 253 231 256 216 286 268 272 290 327 335
346 344 343 338 331 326 318 310 301 294 292 292 296 301 307 308 288 263 217 126 126 226 226 200 193 197 208 212 199 218 229 243 255 271 266 268 246 248 224 244 259 247 243 251 252
347 347 347 344 335 327 319 312 304 299 295 293 298 302 302 298 268 160 124 139 180 223 240 218 205 197 216 212 206 209 240 241 251 273 273 280 280 268 262 258 256 268 276 300 279
346 347 347 344 338 330 319 311 305 301 297 294 296 301 298 270 304 73 134 147 183 210 232 214 211 205 219 213 220 237 229 244 267 290 235 255 259 260 259 263 277 297 286 273 267
343 344 343 342 339 333 321 310 302 296 296 293 290 291 274 224 256 110 138 152 178 210 211 204 205 213 220 212 224 218 248 230 251 248 257 270 264 266 264 260 260 263 261 256 258
338 340 340 338 333 331 322 308 298 292 276 268 268 272 247 253 79 135 158 163 184 206 212 216 223 225 265 240 217 208 241 250 240 248 237 246 254 257 247 230 250 244 258 260 258
335 337 337 336 331 323 321 304 295 286 278 268 265 252 264 252 335 162 168 190 193 215 207 221 249 199 233 224 238 247 254 236 245 241 245 251 261 251 239 246 250 254 250 259 264
332 332 334 335 331 323 316 303 290 273 264 259 255 256 267 85 220 191 192 194 186 213 235 181 243 225 236 174 212 233 229 249 226 214 227 212 260 263 102 193 228 236 260 251 255
330 330 329 332 330 324 316 302 289 240 227 235 234 232 257 121 211 199 200 181 181 194 217 185 234 232 204 229 225 207 245 225 244 170 241 197 259 207 162 231 255 261 250 245 236
328 327 327 326 330 325 317 296 159 171 204 212 268 252 243 226 182 188 197 223 188 197 203 218 224 226 227 217 233 222 213 238 254 181 201 249 239 253 221 237 245 244 246 252 255
324 324 324 322 327 330 274 188 192 187 216 251 219 264 114 97 153 189 186 210 201 211 222 200 225 223 235 221 259 295 289 298 265 231 243 264 276 272 267 254 251 250 252 250 245
319 320 319 319 320 326 260 255 4 15 291 231 249 263 234 213 184 190 179 204 203 218 216 222 233 254 242 268 263 261 258 258 261 266 260 269 268 268 262 256 255 264 266 261 259
315 318 319 316 315 267 238 269 310 296 268 161 243 232 217 215 227 191 192 208 204 224 227 235 232 198 271 243 240 240 252 264 266 277 260 265 263 251 245 243 249 268 267 269 273
314 314 317 317 287 271 262 28 221 298 270 137 176 148 200 206 229 203 195 216 236 241 232 246 241 241 251 242 232 246 239 242 255 262 261 266 283 274 277 259 215 216 236 242 251
316 315 318 283 315 252 41 320 323 226 256 137 117 116 168 206 63 198 190 216 242 234 253 239 228 242 236 238 237 256 276 274 269 267 277 265 262 265 251 247 232 229 236 243 267
320 321 327 178 217 279 311 295 244 236 260 121 131 155 163 210 198 148 196 244 281 276 254 262 275 281 254 234 240 282 265 260 263 262 256 260 260 266 260 279 269 199 286 332 320
318 322 303 301 10 337 280 228 231 255 108 134 123 194 164 182 178 181 198 210 224 213 246 258 256 252 228 259 242 223 255 264 257 243 256 256 246 257 315 286 220 276 312 312 303
319 316 183 265 273 288 246 229 264 50 24 53 275 234 220 181 214 199 219 211 224 272 287 273 255 229 244 224 251 256 246 258 269 274 289 296 280 271 293 266 280 263 287 283 288
312 239 261 28 320 233 255 235 8 17 14 335 302 256 224 233 249 234 256 252 245 260 289 281 275 283 242 296 281 261 253 298 295 284 277 277 279 275 268 212 233 245 239 256 261
311 276 70 340 240 252 256 289 348 13 324 301 289 313 302 292 214 243 253 266 252 253 284 299 294 279 273 255 253 259 290 278 258 272 265 266 279 272 344 300 265 254 270 283 283
260 256 73 318 240 237 262 37 28 81 330 326 328 310 321 319 303 255 231 248 225 233 222 249 253 275 299 243 259 241 246 248 265 255 266 281 273 315 261 316 306 306 302 302 289
275 257 62 281 243 214 293 32 27 282 250 289 297 311 301 298 296 284 272 250 43 277 274 251 263 262 261 266 270 268 271 271 246 269 250 264 266 276 284 285 291 277 267 262 291
298 301 106 267 274 206 98 260 255 310 318 318 281 310 304 290 294 272 289 308 299 256 212 249 228 265 252 234 230 244 265 269 262 267 258 268 269 233 234 264 242 266 289 303 312
279 265 145 236 4 312 344 259 285 109 292 301 286 295 294 279 286 285 302 357 341 298 39 281 266 259 276 290 163 284 279 278 276 263 269 264 283 281 282 285 299 302 296 306 302
299 75 7 317 106 321 281 329 265 272 354 273 220 295 312 256 258 250 260 294 299 256 273 330 264 261 266 278 284 287 282 273 263 261 262 276 277 282 300 306 300 296 315 308 294
321 337 242 298 306 274 171 145 298 134 272 321 285 167 270 265 267 302 304 287 276 252 285 179 267 275 268 261 265 268 271 269 269 274 275 280 283 285 281 290 304 355 326 306 313
42 132 276 42 215 269 9 3 146 280 261 352 325 290 295 303 315 273 245 271 246 254 267 255 247 259 257 256 262 262 259 264 276 264 268 276 301 328 312 330 334 320 301 306 308